Regional Weather Roundup
Issued by NWS

Home | Current Version | Previous Version | Graphics & Text | Print | Product List | Glossary On
Versions: 1 2 3 4 5 6 7 8 9 10 11 12 13 14 15 16 17 18 19 20 21 22 23 24 25 26 27 28 29 30 31 32 33 34 35 36 37 38 39 40 41 42 43 44 45 46 47 48 49 50
000
ASUS45 KABQ 240001
RWRNM
WEATHER ROUNDUP FOR NEW MEXICO
NATIONAL WEATHER SERVICE ALBUQUERQUE NM
600 PM MDT THU OCT 23 2014

NOTE: "FAIR" MEANS FEW OR NO CLOUDS BELOW 12,000 FEET AGL WITH NO
       SIGNIFICANT WEATHER OR OBSTRUCTIONS TO VISION.

      THIS PRODUCT IS RELEASED AS TWO VERSIONS.  ONE VERSION NEAR
      THE TOP OF THE HOUR CONTAINING PRELIMINARY DATA FROM ALBUQUERQUE
      AND OTHER STATIONS.  A FINAL VERSION WITH ADDITIONAL DATA IS
      ISSUED ABOUT 10 MINUTES AFTER THE HOUR.

NMZ501-503-504-510>518-240100-
NORTHWEST PLATEAU/NORTHCENTRAL MOUNTAINS

CITY           SKY/WX    TMP DP  RH WIND       PRES   REMARKS
FARMINGTON     CLEAR     68  32  26 W7        30.22R
6HR MIN TEMP:  63; 6HR MAX TEMP:  74;

LOS ALAMOS     CLEAR     64  32  30 CALM      30.31R
SANTA FE       CLEAR     69  32  25 N3        30.24R
6HR MIN TEMP:  65; 6HR MAX TEMP:  72;

TAOS           CLEAR     64  27  24 SW7       30.29R
ANGEL FIRE     FAIR      57  28  32 W12       30.35R

$$
NMZ402-403-502-505>509-240100-
WESTCENTRAL MOUNTAINS/SOUTHWEST MOUNTAINS

CITY           SKY/WX    TMP DP  RH WIND       PRES   REMARKS
GALLUP         CLEAR     68  34  28 SW7       30.27R
6HR MIN TEMP:  63; 6HR MAX TEMP:  72;

GRANTS         CLEAR     70  27  19 N6        30.29R
SILVER CITY    CLEAR     72  43  35 S8        30.23R

$$
NMZ407-409-411-412-240100-
SOUTHERN DESERTS

CITY           SKY/WX    TMP DP  RH WIND       PRES   REMARKS
LORDSBURG      FAIR      75  43  31 MISG      30.14S
DEMING         CLEAR     76  46  34 SW7       30.15S
6HR MIN TEMP:  72; 6HR MAX TEMP:  79;

LAS CRUCES     CLEAR     76  46  34 S5        30.16S
HOLLOMAN AFB   CLEAR     77  43  29 CALM      30.12S
T OR C         CLEAR     76  42  29 S6        30.16R
6HR MIN TEMP:  71; 6HR MAX TEMP:  78;


$$
NMZ519>523-240100-
CENTRAL VALLEYS/CENTRAL HIGHLANDS

CITY           SKY/WX    TMP DP  RH WIND       PRES   REMARKS
ALBUQUERQUE    PTCLDY    73  35  25 W6        30.20R
6HR MIN TEMP:  65; 6HR MAX TEMP:  76;

DOUBLE EAGLE   CLEAR     72  36  26 SW5       30.23R
MORIARTY ARPT  FAIR      67  33  27 W9        30.25R
6HR MIN TEMP:  67; 6HR MAX TEMP:  74;

CLINES CORNERS CLEAR     65  31  28 NW15      30.26R
6HR MIN TEMP:  65; 6HR MAX TEMP:  71;

BELEN          FAIR      73  35  24 E6        30.19R
6HR MIN TEMP:  68; 6HR MAX TEMP:  76;

SOCORRO        FAIR      73  43  33 SE3       30.17S
6HR MIN TEMP:  66; 6HR MAX TEMP:  77;


$$
NMZ524>526-539-540-240100-
SOUTHCENTRAL MOUNTAINS

CITY           SKY/WX    TMP DP  RH WIND       PRES   REMARKS
RUIDOSO        CLEAR     64  39  39 NW8       30.30R

$$
NMZ527>531-240100-
NORTHEAST HIGHLANDS/NORTHEAST PLAINS

CITY           SKY/WX    TMP DP  RH WIND       PRES   REMARKS
LAS VEGAS      CLEAR     65  31  28 S8        30.23R
6HR MIN TEMP:  65; 6HR MAX TEMP:  73;

RATON          CLEAR     66  31  27 S6        30.19R
6HR MIN TEMP:  66; 6HR MAX TEMP:  74;

CLAYTON        CLEAR     67  47  48 NE5       30.14R
6HR MIN TEMP:  67; 6HR MAX TEMP:  76;


$$
NMZ532>537-240100-
EASTCENTRAL PLAINS

CITY           SKY/WX    TMP DP  RH WIND       PRES   REMARKS
TUCUMCARI      CLEAR     77  36  22 E3        30.07R
6HR MIN TEMP:  73; 6HR MAX TEMP:  83;

CANNON AFB     CLEAR     74  45  35 SW7       30.11R
6HR MIN TEMP:  74; 6HR MAX TEMP:  81;

CLOVIS AIRPORT CLEAR     72  43  35 SW7       30.13R

$$
NMZ028-029-538-240100-
SOUTHEAST PLAINS

CITY           SKY/WX    TMP DP  RH WIND       PRES   REMARKS
ROSWELL        CLEAR     73  57  57 S6        30.09S
6HR MIN TEMP:  67; 6HR MAX TEMP:  79;

CARLSBAD       CLEAR     72  57  59 S6        30.08R
6HR MIN TEMP:  62; 6HR MAX TEMP:  76;

HOBBS          CLEAR     73  54  49 S7        30.12R


$$



USA.gov is the U.S. government's official web portal to all federal, state and local government web resources and services.